When you browse on this site, cookies collect data to enhance your experience and personalize the content and advertising you see.
Visit our Privacy Policy to learn more. By continuing to use the site, you agree to this use of cookies and data.
  • In Italy
  • List of Countries
  • For 7 days
  • Water Temperature
  • Satellite Maps
  • Weather Map
  • Weather Widgets
  • user-avatar
    Login

    Hourly Weather Mrowczewo

    Today, 19 February, Tuesday

    Time Temperature Precipitation Wind Pressure Humidity
    00:00 +2°C° 0 mm 3 mps 750 mmHg 81%
    01:00 +3°C° 0 mm 2 mps 749 mmHg 80%
    02:00 +3°C° 0 mm 2 mps 749 mmHg 81%
    03:00 +3°C° 0 mm 2 mps 748 mmHg 82%
    04:00 +2°C° 0 mm 2 mps 748 mmHg 83%
    05:00 +1°C° 0 mm 3 mps 748 mmHg 83%
    06:00 +1°C° 0 mm 3 mps 747 mmHg 84%
    07:00 0°C° 0 mm 3 mps 747 mmHg 84%
    08:00 +1°C° 0 mm 3 mps 747 mmHg 77%
    09:00 +3°C° 0 mm 4 mps 746 mmHg 71%
    10:00 +3°C° 0 mm 5 mps 746 mmHg 64%
    11:00 +6°C° 0 mm 5 mps 746 mmHg 62%
    12:00 +7°C° 0 mm 6 mps 746 mmHg 59%
    13:00 +10°C° 0 mm 5 mps 746 mmHg 57%
    14:00 +9°C° 0 mm 5 mps 746 mmHg 60%
    15:00 +9°C° 0 mm 5 mps 745 mmHg 64%
    16:00 +8°C° 0 mm 5 mps 745 mmHg 67%
    17:00 +7°C° 0 mm 5 mps 745 mmHg 73%
    18:00 +6°C° 0 mm 5 mps 746 mmHg 80%
    19:00 +5°C° 0 mm 4 mps 746 mmHg 86%
    20:00 +5°C° 0 mm 4 mps 746 mmHg 86%
    21:00 +4°C° 0 mm 4 mps 746 mmHg 87%
    22:00 +4°C° 0 mm 4 mps 746 mmHg 87%
    23:00 +2°C° 0 mm 5 mps 746 mmHg 88%

    Tomorrow, 20 February, Wednesday

    Time Temperature Precipitation Wind Pressure Humidity
    00:00 +2°C° 0 mm 5 mps 746 mmHg 88%
    01:00 +2°C° 0 mm 5 mps 746 mmHg 88%
    02:00 +2°C° 0 mm 5 mps 746 mmHg 89%
    03:00 +1°C° 0 mm 5 mps 746 mmHg 90%
    04:00 +1°C° 0 mm 6 mps 746 mmHg 91%
    05:00 +1°C° 0 mm 6 mps 747 mmHg 87%
    06:00 +2°C° 0 mm 6 mps 747 mmHg 84%
    07:00 +2°C° 0 mm 6 mps 747 mmHg 80%
    08:00 +2°C° 0.1 mm 6 mps 748 mmHg 78%
    09:00 +3°C° 0.1 mm 7 mps 748 mmHg 76%
    10:00 +2°C° 0.1 mm 8 mps 748 mmHg 74%
    11:00 +3°C° 0.1 mm 7 mps 749 mmHg 72%
    12:00 +3°C° 0.1 mm 7 mps 749 mmHg 70%
    13:00 +3°C° 0.1 mm 7 mps 749 mmHg 68%
    14:00 +3°C° 0 mm 7 mps 749 mmHg 68%
    15:00 +4°C° 0 mm 6 mps 750 mmHg 68%
    16:00 +4°C° 0 mm 6 mps 750 mmHg 67%
    17:00 +3°C° 0 mm 6 mps 750 mmHg 70%
    18:00 +3°C° 0 mm 5 mps 751 mmHg 72%
    19:00 +3°C° 0 mm 5 mps 751 mmHg 74%
    20:00 +2°C° 0 mm 5 mps 751 mmHg 77%
    21:00 +3°C° 0 mm 4 mps 751 mmHg 79%
    22:00 +3°C° 0 mm 4 mps 752 mmHg 82%
    23:00 +3°C° 0 mm 4 mps 752 mmHg 84%

    Day after tomorrow, 21 February, Thursday

    Time Temperature Precipitation Wind Pressure Humidity
    00:00 +1°C° 0 mm 4 mps 752 mmHg 87%
    01:00 +1°C° 0 mm 4 mps 752 mmHg 89%
    02:00 +2°C° 0.1 mm 3 mps 752 mmHg 91%
    03:00 +2°C° 0.1 mm 3 mps 752 mmHg 94%
    04:00 +3°C° 0.1 mm 2 mps 752 mmHg 96%
    05:00 +2°C° 0.3 mm 3 mps 752 mmHg 96%
    06:00 +2°C° 0.3 mm 3 mps 752 mmHg 95%
    07:00 +3°C° 0.3 mm 3 mps 751 mmHg 95%
    08:00 +3°C° 0.5 mm 4 mps 751 mmHg 93%
    09:00 +3°C° 0.5 mm 4 mps 751 mmHg 92%
    10:00 +2°C° 0.5 mm 5 mps 751 mmHg 90%
    11:00 +3°C° 0.7 mm 5 mps 750 mmHg 90%
    12:00 +3°C° 0.7 mm 6 mps 750 mmHg 89%
    13:00 +3°C° 0.7 mm 6 mps 750 mmHg 89%
    14:00 +3°C° 0.2 mm 6 mps 749 mmHg 89%
    15:00 +5°C° 0.2 mm 5 mps 749 mmHg 89%
    16:00 +5°C° 0.2 mm 5 mps 749 mmHg 89%
    17:00 +5°C° 0.3 mm 5 mps 749 mmHg 90%
    18:00 +5°C° 0.3 mm 5 mps 749 mmHg 91%
    19:00 +5°C° 0.3 mm 5 mps 749 mmHg 91%
    20:00 +5°C° 0.3 mm 5 mps 749 mmHg 91%
    21:00 +5°C° 0.3 mm 5 mps 750 mmHg 91%
    22:00 +4°C° 0.3 mm 6 mps 750 mmHg 91%
    23:00 +2°C° 0.3 mm 6 mps 750 mmHg 89%

    22 February, Friday

    Time Temperature Precipitation Wind Pressure Humidity
    00:00 +1°C° 0.3 mm 6 mps 751 mmHg 88%
    01:00 -2°C° 0.3 mm 7 mps 752 mmHg 87%
    02:00 -3°C° 0.1 mm 7 mps 752 mmHg 84%
    03:00 -3°C° 0.1 mm 7 mps 753 mmHg 80%
    04:00 -4°C° 0.1 mm 7 mps 754 mmHg 77%
    05:00 -5°C° 0 mm 6 mps 756 mmHg 73%
    06:00 -5°C° 0 mm 6 mps 757 mmHg 70%
    07:00 -6°C° 0 mm 6 mps 759 mmHg 66%
    08:00 -6°C° 0 mm 6 mps 760 mmHg 61%
    09:00 -5°C° 0 mm 6 mps 761 mmHg 57%
    10:00 -5°C° 0 mm 6 mps 762 mmHg 53%
    11:00 -5°C° 0 mm 5 mps 762 mmHg 50%
    12:00 -4°C° 0 mm 5 mps 763 mmHg 47%
    13:00 -4°C° 0 mm 5 mps 763 mmHg 44%
    14:00 -3°C° 0 mm 4 mps 764 mmHg 44%
    15:00 -3°C° 0 mm 4 mps 764 mmHg 44%
    16:00 -2°C° 0 mm 3 mps 764 mmHg 45%
    17:00 -4°C° 0 mm 3 mps 765 mmHg 48%
    18:00 -3°C° 0 mm 2 mps 765 mmHg 52%
    19:00 -4°C° 0 mm 2 mps 766 mmHg 55%
    20:00 -2°C° 0 mm 1 mps 766 mmHg 56%
    21:00 -2°C° 0 mm 1 mps 766 mmHg 56%
    22:00 -2°C° 0 mm 1 mps 766 mmHg 57%
    23:00 -2°C° 0 mm 1 mps 766 mmHg 56%

    23 February, Saturday

    Time Temperature Precipitation Wind Pressure Humidity
    00:00 -3°C° 0 mm 0 mps 766 mmHg 56%
    01:00 -3°C° 0 mm 0 mps 767 mmHg 56%
    02:00 -2°C° 0 mm 1 mps 766 mmHg 56%
    03:00 -2°C° 0 mm 1 mps 766 mmHg 56%
    04:00 -2°C° 0 mm 1 mps 766 mmHg 56%
    05:00 -2°C° 0 mm 1 mps 766 mmHg 56%
    06:00 -3°C° 0 mm 1 mps 766 mmHg 57%
    07:00 -4°C° 0 mm 0 mps 766 mmHg 57%
    08:00 -2°C° 0 mm 1 mps 766 mmHg 52%
    09:00 -1°C° 0 mm 1 mps 766 mmHg 47%
    10:00 0°C° 0 mm 1 mps 766 mmHg 42%
    11:00 -1°C° 0 mm 2 mps 765 mmHg 39%
    12:00 +1°C° 0 mm 2 mps 765 mmHg 36%
    13:00 +1°C° 0 mm 2 mps 765 mmHg 34%
    14:00 +1°C° 0 mm 2 mps 764 mmHg 38%
    15:00 +1°C° 0 mm 2 mps 764 mmHg 42%
    16:00 -1°C° 0 mm 2 mps 763 mmHg 47%
    17:00 -1°C° 0 mm 2 mps 763 mmHg 51%
    18:00 +1°C° 0 mm 1 mps 763 mmHg 55%
    19:00 0°C° 0 mm 1 mps 763 mmHg 59%
    20:00 0°C° 0 mm 1 mps 763 mmHg 58%
    21:00 0°C° 0 mm 1 mps 762 mmHg 58%
    22:00 -1°C° 0 mm 2 mps 762 mmHg 57%
    23:00 -1°C° 0 mm 2 mps 762 mmHg 61%

    24 February, Sunday

    Time Temperature Precipitation Wind Pressure Humidity
    00:00 -1°C° 0 mm 2 mps 762 mmHg 64%
    01:00 -1°C° 0 mm 3 mps 761 mmHg 68%
    02:00 -1°C° 0 mm 3 mps 761 mmHg 75%
    03:00 -1°C° 0 mm 3 mps 761 mmHg 82%
    04:00 -1°C° 0 mm 3 mps 761 mmHg 90%
    05:00 -1°C° 0 mm 3 mps 761 mmHg 92%
    06:00 0°C° 0 mm 3 mps 761 mmHg 94%
    07:00 0°C° 0 mm 3 mps 761 mmHg 96%
    08:00 +1°C° 0 mm 3 mps 762 mmHg 92%
    09:00 +2°C° 0 mm 3 mps 762 mmHg 88%
    10:00 +2°C° 0 mm 3 mps 763 mmHg 84%
    11:00 +2°C° 0 mm 3 mps 763 mmHg 83%
    12:00 +2°C° 0 mm 3 mps 763 mmHg 82%
    13:00 +3°C° 0 mm 2 mps 763 mmHg 81%
    14:00 +3°C° 0 mm 2 mps 763 mmHg 81%
    15:00 +3°C° 0 mm 2 mps 763 mmHg 81%
    16:00 +4°C° 0 mm 1 mps 763 mmHg 81%
    17:00 +3°C° 0 mm 1 mps 763 mmHg 83%
    18:00 +2°C° 0 mm 1 mps 764 mmHg 85%
    19:00 +2°C° 0 mm 1 mps 764 mmHg 87%
    20:00 +2°C° 0 mm 1 mps 764 mmHg 87%
    21:00 +2°C° 0 mm 1 mps 764 mmHg 87%
    22:00 +2°C° 0 mm 1 mps 764 mmHg 86%
    23:00 +1°C° 0 mm 1 mps 764 mmHg 87%
    Show more